Location: Campillo
(40.8621°N, 4.2488°W)
Time: 16:19:45
(UTC+00:00)

Envisat - Visible Passes

Search period start: 03 August 2021 00:00
Search period end: 13 August 2021 00:00
Orbit: 764 x 766 km, 98.2° (Epoch: 03 August)

Date Brightness Start Highest point End Pass type
(mag) Time Alt. Az. Time Alt. Az. Time Alt. Az.
04 Aug 5.5 04:36:06 10° NE 04:40:01 22° E 04:43:54 10° SE visible
07 Aug 5.7 04:25:06 10° NE 04:28:25 17° E 04:31:43 10° SE visible
09 Aug 5.1 04:49:32 10° NE 04:53:59 30° E 04:58:25 10° SSE visible
10 Aug 5.9 04:14:22 10° ENE 04:16:48 13° E 04:19:13 10° ESE visible
12 Aug 5.4 04:38:20 10° NE 04:42:25 24° E 04:46:27 10° SSE visible
